Location: Newark
(44.0167°N, 1.3500°E)
Time: 21:10:56
(UTC+00:00)

SEEDS - Visible Passes

Search period start: 08 December 2019 00:00
Search period end: 18 December 2019 00:00
Orbit: 585 x 605 km, 97.5° (Epoch: 08 December)

Date Brightness Start Highest point End Pass type
(mag) Time Alt. Az. Time Alt. Az. Time Alt. Az.
08 Dec ? 05:11:55 10° NNE 05:15:42 31° E 05:19:28 10° SSE visible
08 Dec ? 17:40:07 10° SSW 17:43:42 28° W 17:47:20 10° NW visible
09 Dec ? 05:21:19 10° NNE 05:25:18 40° E 05:29:16 10° SSE visible
09 Dec ? 17:50:03 10° SW 17:53:20 22° W 17:56:38 10° NW visible
10 Dec ? 05:30:46 10° NNE 05:34:53 51° E 05:39:00 10° S visible
10 Dec ? 18:00:08 10° SW 18:02:58 18° W 18:05:50 10° NW visible
11 Dec ? 05:40:15 10° NNE 05:44:28 66° E 05:48:40 10° S visible
11 Dec ? 18:10:24 10° WSW 18:12:38 14° W 18:14:52 10° WNW visible
12 Dec ? 05:49:47 10° NNE 05:54:02 85° ESE 05:58:16 10° SSW visible
12 Dec ? 16:42:05 10° SSE 16:46:12 67° ENE 16:50:20 10° N visible
12 Dec ? 18:21:08 10° WSW 18:22:17 11° W 18:23:27 10° WNW visible
13 Dec ? 05:59:21 10° N 06:03:35 76° WNW 06:07:48 10° SSW visible
13 Dec ? 16:51:35 10° SSE 16:55:44 85° ENE 16:59:55 10° NNW visible
14 Dec ? 04:35:08 10° ENE 04:37:07 13° E 04:39:04 10° ESE visible
14 Dec ? 06:08:57 10° N 06:13:07 59° WNW 06:17:17 10° SSW visible
14 Dec ? 17:01:09 10° S 17:05:16 75° WSW 17:09:28 10° NNW visible
15 Dec ? 04:44:03 10° NE 04:46:46 16° E 04:49:28 10° SE visible
15 Dec ? 06:18:35 10° N 06:22:39 46° WNW 06:26:42 10° SW visible
15 Dec ? 17:10:47 10° S 17:14:51 58° W 17:18:59 10° NNW visible
16 Dec ? 04:53:12 10° NE 04:56:24 21° E 04:59:36 10° SE visible
16 Dec ? 06:28:15 10° N 06:32:09 36° WNW 06:36:03 10° SW visible
16 Dec ? 17:20:28 10° S 17:24:26 44° W 17:28:27 10° NNW visible
17 Dec ? 05:02:28 10° NE 05:06:02 26° E 05:09:35 10° SSE visible
17 Dec ? 06:37:58 10° N 06:41:39 29° WNW 06:45:19 10° SW visible
17 Dec ? 17:30:13 10° SSW 17:34:02 35° W 17:37:52 10° NNW visible
